This is the latest recevied weather packets stored in our database for station/object KC7YCE. If no packets are shown the sender has not sent any weather packets the latest 10 day(s).
| Time | Temp. | Humidity | Pressure | Rain* | Wind** | Luminosity | Snow |
|---|---|---|---|---|---|---|---|
| 1777799409 | -1.67° C | 66% | 1023.5 hPa | 0 mm | - | - | - |
| 1777798808 | -1.11° C | 66% | 1023.5 hPa | 0 mm | - | - | - |
| 1777798208 | -1.11° C | 64% | 1023.5 hPa | 0 mm | - | - | - |
| 1777797609 | -0.56° C | 60% | 1023.5 hPa | 0 mm | - | - | - |
| 1777797008 | 0° C | 59% | 1023.6 hPa | 0 mm | - | - | - |
| 1777796408 | 0° C | 59% | 1023.6 hPa | 0 mm | - | - | - |
| 1777795809 | 0° C | 60% | 1023.6 hPa | 0 mm | - | - | - |
| 1777795208 | -0.56° C | 61% | 1023.6 hPa | 0 mm | - | - | - |
| 1777794578 | -0.56° C | 61% | 1023.7 hPa | 0 mm | - | - | - |
| 1777793978 | 0° C | 61% | 1023.8 hPa | 0 mm | - | - | - |
| 1777793348 | 0° C | 60% | 1023.8 hPa | 0 mm | - | - | - |
| 1777789118 | 0.56° C | 58% | 1023.7 hPa | 0 mm | - | - | - |
| 1777788518 | 0.56° C | 59% | 1023.7 hPa | 0 mm | - | - | - |
| 1777786717 | 1.11° C | 57% | 1023.7 hPa | 0 mm | - | - | - |
| 1777786118 | 1.11° C | 57% | 1023.8 hPa | 0 mm | - | - | - |
| 1777785517 | 1.11° C | 57% | 1023.7 hPa | 0 mm | - | - | - |
| 1777784917 | 1.11° C | 58% | 1023.7 hPa | 0 mm | - | - | - |
| 1777783717 | 1.11° C | 59% | 1023.8 hPa | 0 mm | - | - | - |
| 1777783087 | 1.11° C | 60% | 1023.8 hPa | 0 mm | - | - | - |
| 1777782487 | 1.67° C | 58% | 1023.8 hPa | 0 mm | - | - | - |
| 1777781887 | 1.67° C | 56% | 1023.7 hPa | 0 mm | - | - | - |
| 1777781289 | 2.22° C | 56% | 1023.6 hPa | 0 mm | - | - | - |
| 1777780687 | 2.22° C | 55% | 1023.5 hPa | 0 mm | - | - | - |
| 1777779486 | 3.33° C | 53% | 1023.3 hPa | 0 mm | - | - | - |
| 1777778886 | 3.89° C | 52% | 1023.2 hPa | 0 mm | - | - | - |
* Rain latest hour (hover to see other rain measurements)
** Current wind speed in m/s (hover to see current wind gust speed)